Weather History for KOPF - March, 2012

Change the Weather History Date:

Sunday, March 4, 2012

  Actual Average Record
Temperature  
Mean Temperature 72 °F -  
Max Temperature 84 °F 79 °F 88 °F (2003)
Min Temperature 57 °F 62 °F 44 °F (1960)
Cooling Degree Days 6    
Growing Degree Days 22 (Base 50)    
Moisture  
Dew Point 58 °F    
Average Humidity 67    
Maximum Humidity 89    
Minimum Humidity 36    
Precipitation  
Precipitation 0.00 in - - ()
Sea Level Pressure  
Sea Level Pressure 30.00 in    
Wind  
Wind Speed 15 mph (WNW)    
Max Wind Speed 26 mph    
Max Gust Speed 37 mph    
Visibility 10 miles    
Events Rain    
Averages and records for this station are not official NWS values.
T = Trace of Precipitation, MM = Missing Value Source: NWS Daily Summary

Daily Weather History Graph

Daily Weather History Graph

Search for Another Location

Airport or City:

Trip Planner

Search our weather history database for the weather conditions in past years. The results will help you decide how hot, cold, wet, or windy it might be!

Date:

Astronomy

Mar. 04, 2012 Rise Set
Actual Time 6:41 AM EST 6:24 PM EST
Civil Twilight 6:18 AM EST 6:47 PM EST
Nautical Twilight 5:51 AM EST 7:14 PM EST
Astronomical Twilight 5:24 AM EST 7:41 PM EST
Moon 2:53 PM EST (3/4) 3:40 AM EST (3/4)
Length of Visible Light 12h 29m
Length of Day
11h 43m
Waxing Gibbous, 83% of the Moon is Illuminated
Mar 4
Waxing Gibbous
Mar 8
Full
Mar 14
Last Quarter
Mar 22
New
Mar 30
First Quarter

Hourly Weather History & Observations

Time (EST) Temp. Heat Index Dew Point Humidity Pressure Visibility Wind Dir Wind Speed Gust Speed Precip Events Conditions
12:53 AM 75.9 °F - 71.1 °F 85% 29.91 in 10.0 mi South 12.7 mph - N/A   Partly Cloudy
1:19 AM 75.2 °F - 71.6 °F 89% 29.91 in 10.0 mi South 9.2 mph - N/A   Mostly Cloudy
1:32 AM 75.2 °F - 69.8 °F 83% 29.90 in 10.0 mi South 11.5 mph - N/A   Scattered Clouds
1:53 AM 75.9 °F - 70.0 °F 82% 29.90 in 10.0 mi South 11.5 mph - N/A   Clear
2:53 AM 75.9 °F - 71.1 °F 85% 29.89 in 10.0 mi South 13.8 mph - N/A   Clear
3:53 AM 75.0 °F - 71.1 °F 87% 29.88 in 10.0 mi SSW 13.8 mph - N/A   Partly Cloudy
4:53 AM 75.0 °F - 71.1 °F 87% 29.88 in 10.0 mi SSW 11.5 mph - N/A   Clear
5:53 AM 75.9 °F - 70.0 °F 82% 29.90 in 10.0 mi SSW 13.8 mph - N/A   Partly Cloudy
6:53 AM 75.9 °F - 70.0 °F 82% 29.91 in 10.0 mi SSW 13.8 mph 20.7 mph N/A   Partly Cloudy
7:53 AM 78.1 °F - 70.0 °F 76% 29.92 in 10.0 mi SSW 21.9 mph 29.9 mph N/A   Clear
8:53 AM 82.0 °F 85.9 °F 70.0 °F 67% 29.93 in 10.0 mi SSW 24.2 mph 31.1 mph N/A   Clear
9:53 AM 84.9 °F 89.4 °F 70.0 °F 61% 29.94 in 10.0 mi SW 26.5 mph 32.2 mph N/A   Scattered Clouds
10:53 AM 82.0 °F 85.9 °F 70.0 °F 67% 29.96 in 10.0 mi WSW 17.3 mph 26.5 mph 0.00 in Rain Light Rain
11:10 AM 71.6 °F - 64.4 °F 78% 29.99 in 10.0 mi NW 25.3 mph 36.8 mph 0.00 in   Overcast
11:25 AM 69.8 °F - 64.4 °F 83% 30.00 in 10.0 mi NW 23.0 mph 33.4 mph 0.00 in Rain Light Rain
11:53 AM 69.1 °F - 63.0 °F 81% 30.01 in 10.0 mi NW 23.0 mph 28.8 mph 0.00 in   Overcast
12:22 PM 66.2 °F - 62.6 °F 88% 30.01 in 10.0 mi NW 21.9 mph 28.8 mph 0.00 in Rain Light Rain
12:33 PM 69.8 °F - 60.8 °F 73% 30.01 in 10.0 mi NW 24.2 mph 32.2 mph 0.00 in   Overcast
12:53 PM 68.0 °F - 57.9 °F 70% 30.02 in 10.0 mi NW 23.0 mph 33.4 mph 0.00 in   Overcast
1:53 PM 66.9 °F - 54.0 °F 63% 30.04 in 10.0 mi NNW 17.3 mph 26.5 mph 0.00 in Rain Light Rain
2:53 PM 68.0 °F - 48.0 °F 49% 30.04 in 10.0 mi NNW 18.4 mph 27.6 mph 0.00 in   Overcast
3:53 PM 69.1 °F - 44.1 °F 40% 30.03 in 10.0 mi North 17.3 mph - N/A   Overcast
4:53 PM 69.1 °F - 41.0 °F 36% 30.04 in 10.0 mi North 15.0 mph 23.0 mph N/A   Clear
5:53 PM 68.0 °F - 39.9 °F 36% 30.07 in 10.0 mi North 15.0 mph - N/A   Clear
6:53 PM 64.9 °F - 37.9 °F 37% 30.11 in 10.0 mi North 9.2 mph - N/A   Clear
7:53 PM 63.0 °F - 37.9 °F 40% 30.13 in 10.0 mi North 8.1 mph - N/A   Clear
8:53 PM 62.1 °F - 39.9 °F 44% 30.16 in 10.0 mi North 6.9 mph - N/A   Clear
9:53 PM 61.0 °F - 39.0 °F 44% 30.19 in 10.0 mi NNW 9.2 mph - N/A   Clear
10:53 PM 59.0 °F - 39.9 °F 49% 30.20 in 10.0 mi NNW 6.9 mph - N/A   Clear
11:53 PM 57.0 °F - 41.0 °F 55% 30.21 in 10.0 mi NNW 4.6 mph - N/A   Clear